Simultaneous Nadir Overpasses (SNOs) Predictions

Prediction of SNOs between LANDSAT-8 and METOP-B Satellite Orbit:

Table of predicted SNOs for the next 14.0 days since TLE Epoch: 3/21/2014
Index Date (LANDSAT-8) Time (LANDSAT-8) Lat,Lon (LANDSAT-8) SZA (LANDSAT-8 ) Date (METOP-B) Time (METOP-B) Lat,Lon (METOP-B) SZA (METOP-B ) Distance(km) Time Diff (sec)
1 03/23/2014 05:40:36 81.07, 133.45 81.84 03/23/2014 05:39:44 81.07, 133.60 81.84 2.67 52
2 03/23/2014 06:30:02 -81.09, -58.60 98.13 03/23/2014 06:30:24 -81.09, -58.71 98.14 2.06 22
3 03/26/2014 01:14:46 81.07,-160.08 80.76 03/26/2014 01:14:05 81.08,-159.91 80.76 3.01 41
4 03/26/2014 02:04:12 -81.09, 7.89 99.21 03/26/2014 02:04:45 -81.09, 7.83 99.20 1.00 33
5 03/28/2014 20:48:57 81.06, -93.84 79.65 03/28/2014 20:48:28 81.06, -93.87 79.64 0.70 29
6 03/28/2014 21:38:22 -81.11, 74.51 100.26 03/28/2014 21:39:06 -81.11, 74.68 100.23 2.91 44
7 03/31/2014 16:23:06 81.08, -27.10 78.62 03/31/2014 16:22:49 81.07, -27.16 78.61 1.12 17
8 03/31/2014 17:12:32 -81.10, 140.90 101.34 03/31/2014 17:13:28 -81.11, 141.07 101.30 2.97 56
9 04/03/2014 11:57:14 81.08, 39.41 77.57 04/03/2014 11:57:09 81.08, 39.47 77.58 1.12 5




NCC Satellite Simultaneous Nadir Overpasses (SNOs) Prediction Service
